{"data":{"norad_id":46129,"epoch":"2026-08-22T01:04:20.102304Z","epoch_age_seconds":2566812,"freshness":"OLD","line1":"1 46129U 20057N   26234.04467711  .12899124  12521-4  29275-3 0  9992","line2":"2 46129  53.0137 151.0676 0006200 263.2231  96.8112 16.46115981332991","mean_motion":16.46115981,"eccentricity":0.00062,"inclination_deg":53.0137,"raan_deg":151.0676,"arg_perigee_deg":263.2231,"mean_anomaly_deg":96.8112,"bstar":0.00029275,"rev_number":33299,"period_min":87.478647715042,"perigee_km":145.53635942397,"apogee_km":153.63073290121,"semimajor_km":6527.7205461626,"source":"CELESTRAK","updated_at":"2026-08-22T09:00:35.139472Z"}}